Location: Santa Maria di Sala
(45.5070°N, 12.0300°E)
Time: 22:36:44
(UTC+02:00)

Tiangong - Visible Passes

Search period start: 28 September 2023 00:00
Search period end: 08 October 2023 00:00
Orbit: 373 x 384 km, 41.5° (Epoch: 28 September)

Date Brightness Start Highest point End Pass type
(mag) Time Alt. Az. Time Alt. Az. Time Alt. Az.
28 Sep 0.4 20:28:34 10° S 20:29:03 12° S 20:29:03 12° S visible
29 Sep 0.6 21:02:15 10° SW 21:02:43 13° SW 21:02:43 13° SW visible
30 Sep -0.5 20:01:06 10° SSW 20:03:26 19° SSE 20:04:08 18° SE visible
01 Oct -0.8 20:35:16 10° SW 20:37:31 29° SSW 20:37:31 29° SSW visible
02 Oct -0.7 19:33:50 10° SW 19:36:29 25° SSE 19:38:42 13° ESE visible
02 Oct 0.5 21:09:52 10° WSW 21:10:47 17° WSW 21:10:47 17° WSW visible
03 Oct -1.3 20:08:12 10° WSW 20:11:08 37° S 20:11:53 31° SE visible
04 Oct -0.7 20:42:51 10° WSW 20:44:58 30° SW 20:44:58 30° SW visible
05 Oct -1.3 19:41:03 10° WSW 19:44:00 39° S 19:45:58 18° ESE visible
05 Oct 1.0 21:17:41 10° WSW 21:18:02 12° WSW 21:18:02 12° WSW visible
06 Oct -1.1 20:15:43 10° WSW 20:18:34 32° S 20:19:00 31° S visible
07 Oct -1.1 19:13:47 10° WSW 19:16:44 37° S 19:19:39 10° ESE visible
07 Oct 0.3 20:50:38 10° WSW 20:52:00 17° SW 20:52:00 17° SW visible
